Other Surface Observations
Issued by NWS

Home | Current Version | Previous Version | Text Only | Print | Product List | Glossary On
Versions: 1 2 3 4 5 6 7 8 9 10 11 12 13 14 15 16 17 18 19 20 21 22 23 24 25 26 27 28 29 30 31 32 33 34 35 36 37 38 39 40 41 42 43 44 45 46 47 48 49 50
000
SXUS52 KTAE 271406
OSOTAE
OSOTAE
North Florida/South Alabama/Southwest Georgia Weather Roundup
National Weather Service Tallahassee Florida
1000 AM EDT SAT MAY 27 2017

Note: "fair" indicates few or no clouds below 12,000 feet with no
significant weather and/or obstructions to visibility.

!FLZ017-115-028-034-025-271500
...North Florida...

CITY           SKY/WX    TMP DP  RH WIND       PRES   REMARKS
TALLAHASSEE    MOSUNNY   77  65  66 W6        30.10R
APALACHICOLA   MOSUNNY   79  70  74 VRB6      30.10R
PERRY          SUNNY     76  65  67 CALM      30.11S
CROSS CITY     SUNNY     77  66  69 S3        30.11S
JACKSONVILLE   MOSUNNY   77  65  66 W5        30.07S
$$

!FLZ112-006-005-002-011-271500
...Florida Panhandle...

CITY           SKY/WX    TMP DP  RH WIND       PRES   REMARKS
MARIANNA       MOSUNNY   76  68  76 SW8       30.09R
BONIFAY        FAIR      76  69  79 VRB3      30.11R
PANAMA CITY NW FAIR      78  68  71 SW10      30.09R
TYNDALL AFB    MOSUNNY   79  68  69 W7        30.10R
TYND DRONE APT FAIR      78  69  74 SW7       30.10R
DE FUNIAK SPR  FAIR      76  65  69 SW9       30.11S
EGLIN AFB      PTSUNNY   78  68  71 W5        30.10R
DESTIN         PTSUNNY   83  76  79 N5        30.10R HX  91
HURLBURT       MOSUNNY   79  70  73 CALM      30.09R
CRESTVIEW      MOSUNNY   76  67  73 CALM      30.11S
PENSACOLA      PTSUNNY   80  71  74 VRB3      30.09R
$$

!ALZ063-066-271500
...South Alabama...

CITY           SKY/WX    TMP DP  RH WIND       PRES   REMARKS
DOTHAN         PTSUNNY   74  67  78 W10       30.14R
OZARK CAIRNS   MOSUNNY   74  66  75 SW12      30.10R
FT RUCKER HELI PTSUNNY   75  66  73 W8        30.10S
RUCKER HELI 3  CLOUDY    74  65  74 W12       30.10R
RUCKER HELI 2  PTSUNNY   73  66  78 NW5       30.10S
FLORALA APT    PTSUNNY   77  65  66 VRB5      30.12R
ANDALUSIA      MOSUNNY   77  66  68 W3        30.10R
TROY           MOSUNNY   71  66  84 SW7       30.11R
EUFALA         FAIR      76  66  71 VRB7      30.08S
MOBILE         CLOUDY    77  72  84 CALM      30.10R
$$

!GAZ120>161-271500
...Southwest and South Central Georgia...

CITY           SKY/WX    TMP DP  RH WIND       PRES   REMARKS
THOMASVILLE    FAIR      77  66  69 NW5       30.11R
BAINBRIDGE     SUNNY     77  66  69 SW8       30.10S
MOODY AFB      SUNNY     78  64  62 W6        30.08R
VALDOSTA       SUNNY     78  65  63 VRB5      30.09S
MOULTRIE       SUNNY     75  64  69 W3        30.10S
BLAKELY        SUNNY     77  66  69 W6        30.10S
ALBANY         MOSUNNY   76  66  71 W7        30.11S
TIFTON         FAIR      76  65  70 W7        30.09R
FITZGERALD     FAIR      77  63  60 W6        30.10F
CORDELE        FAIR      80  61  52 W7        30.09S
AMERICUS       FAIR      73  59  60 W6        30.10S
HOMERVILLE     FAIR     N/A N/A N/A NW5       30.08F
$$

!GMZ750-755-770-775-271500
...Coastal and Buoy Obs...

STATION/POSITION TIME  TEMP    WIND        PRES    VSBY  WAVE
                       AIR SEA DIR/SP/G                  HT/PER
                 (UTC) (F)     (DEG/KT/KT) (MB)    (MI)  (FT/S)
KEATON BEACH     1400   74     250/  2/  2 1019.3R
CEDAR KEY        1300   72      90/  3/  4 1019.9R
C TOWER          1400   75     280/  5/  6 1019.9R
APALACHICOLA BUO 1250   75 77  290/  4/  4 1018.8          1/ 7
PANAMA CITY BUOY 1250   77 77  230/  6/  6 1018.1          2/ 3
MOBILE BUOY      1350   78 78  210/  6/  6 1018.5R         3/ 5
ORANGE BCH AL BU 1250   77 77  240/  6/  8 1017.9          2/ 4
$$




USA.gov is the U.S. government's official web portal to all federal, state and local government web resources and services.